Marshall, MI

5:21 AM EDT on September 24, 2017 (GMT -0400)
Brooks

Weather History for KRMY - October, 2012

Change the Weather History Date:

Thursday, October 4, 2012

  Actual Average (KBTL) Record (KBTL)
Temperature  
Mean Temperature 65 °F -  
Max Temperature 76 °F 62 °F 84 °F (2005)
Min Temperature 54 °F 42 °F 32 °F (1996)
Growing Degree Days 15 (Base 50)    
Moisture  
Dew Point 52 °F    
Average Humidity 67    
Maximum Humidity 91    
Minimum Humidity 36    
Precipitation  
Precipitation 0.00 in - - ()
Sea Level Pressure  
Sea Level Pressure 30.05 in    
Wind  
Wind Speed 7 mph (SSW)    
Max Wind Speed 18 mph    
Max Gust Speed 24 mph    
Visibility 10 miles    
Events Rain    
Averages and records for this station are not official NWS values.
T = Trace of Precipitation, MM = Missing Value Source: NWS Daily Summary

Daily Weather History Graph

Daily Weather History Graph

Search for Another Location

Airport or City:

Trip Planner

Search our weather history database for the weather conditions in past years. The results will help you decide how hot, cold, wet, or windy it might be!

Date:

Astronomy

Oct. 04, 2012 Rise Set
Actual Time 7:40 AM EDT 7:15 PM EDT
Civil Twilight 7:12 AM EDT 7:43 PM EDT
Nautical Twilight 6:40 AM EDT 8:15 PM EDT
Astronomical Twilight 6:07 AM EDT 8:48 PM EDT
Moon 9:45 PM EDT (10/4) 12:02 PM EDT (10/4)
Length of Visible Light 12h 30m
Length of Day
11h 34m
Waning Gibbous, 82% of the Moon is Illuminated
Oct 4
Waning Gibbous
Oct 8
Last Quarter
Oct 15
New
Oct 21
First Quarter
Oct 29
Full

Hourly Weather History & Observations

Time (EDT) Temp. Dew Point Humidity Pressure Visibility Wind Dir Wind Speed Gust Speed Precip Events Conditions
12:13 AM 59.5 °F 54.3 °F 83% 30.05 in 10.0 mi Calm Calm - N/A   Overcast
12:33 AM 59.7 °F 54.0 °F 81% 30.05 in 10.0 mi South 3.5 mph - N/A   Overcast
12:54 AM 59.5 °F 54.0 °F 82% 30.05 in 10.0 mi South 3.5 mph - N/A   Overcast
1:13 AM 59.9 °F 53.6 °F 80% 30.05 in 10.0 mi South 3.5 mph - N/A   Overcast
1:33 AM 59.9 °F 53.2 °F 79% 30.05 in 10.0 mi South 3.5 mph - N/A   Overcast
1:54 AM 59.5 °F 53.1 °F 79% 30.05 in 10.0 mi South 4.6 mph - N/A   Overcast
2:13 AM 59.4 °F 52.7 °F 79% 30.05 in 10.0 mi SSW 5.8 mph - N/A   Overcast
2:34 AM 58.8 °F 52.2 °F 79% 30.05 in 10.0 mi South 4.6 mph - N/A   Scattered Clouds
2:54 AM 58.1 °F 52.0 °F 80% 30.05 in 10.0 mi SSW 3.5 mph - N/A   Clear
3:13 AM 57.6 °F 51.8 °F 81% 30.05 in 10.0 mi South 3.5 mph - N/A   Clear
3:34 AM 57.7 °F 52.0 °F 81% 30.05 in 10.0 mi South 5.8 mph - N/A   Mostly Cloudy
3:54 AM 57.2 °F 51.6 °F 82% 30.04 in 10.0 mi South 6.9 mph - N/A   Scattered Clouds
4:13 AM 56.7 °F 51.6 °F 83% 30.05 in 10.0 mi SSW 3.5 mph - N/A   Clear
4:34 AM 56.3 °F 51.4 °F 84% 30.05 in 10.0 mi SSW 3.5 mph - N/A   Clear
4:53 AM 56.3 °F 51.4 °F 84% 30.05 in 10.0 mi SSW 5.8 mph - N/A   Clear
5:13 AM 56.1 °F 51.4 °F 84% 30.05 in 10.0 mi SW 3.5 mph - N/A   Clear
5:33 AM 55.6 °F 51.4 °F 86% 30.06 in 10.0 mi SW 4.6 mph - N/A   Clear
5:53 AM 55.2 °F 51.3 °F 87% 30.06 in 10.0 mi SSW 3.5 mph - N/A   Clear
6:14 AM 54.7 °F 50.9 °F 87% 30.06 in 10.0 mi SSW 4.6 mph - N/A   Clear
6:33 AM 55.0 °F 51.1 °F 86% 30.07 in 10.0 mi SSW 3.5 mph - N/A   Clear
6:54 AM 54.5 °F 50.9 °F 88% 30.06 in 10.0 mi South 4.6 mph - N/A   Clear
7:14 AM 54.5 °F 50.9 °F 88% 30.07 in 10.0 mi SSW 5.8 mph - N/A   Scattered Clouds
7:33 AM 54.1 °F 50.7 °F 88% 30.07 in 10.0 mi SSW 4.6 mph - N/A   Scattered Clouds
7:54 AM 54.3 °F 50.9 °F 88% 30.07 in 10.0 mi SW 4.6 mph - N/A   Mostly Cloudy
8:13 AM 55.2 °F 51.4 °F 87% 30.07 in 10.0 mi SW 8.1 mph - N/A   Mostly Cloudy
8:39 AM 56.1 °F 52.3 °F 87% 30.07 in 10.0 mi SW 8.1 mph - N/A   Mostly Cloudy
8:54 AM 56.8 °F 52.7 °F 86% 30.07 in 10.0 mi SW 6.9 mph - N/A   Mostly Cloudy
9:13 AM 57.4 °F 53.1 °F 85% 30.07 in 10.0 mi SSW 5.8 mph - N/A   Scattered Clouds
9:33 AM 59.0 °F 53.4 °F 82% 30.08 in 10.0 mi SW 8.1 mph - N/A   Clear
9:54 AM 60.6 °F 53.8 °F 78% 30.08 in 10.0 mi SW 9.2 mph - N/A   Scattered Clouds
10:13 AM 62.2 °F 54.0 °F 74% 30.08 in 10.0 mi SW 5.8 mph - N/A   Scattered Clouds
10:34 AM 63.5 °F 53.4 °F 70% 30.08 in 10.0 mi SSW 6.9 mph - N/A   Scattered Clouds
10:53 AM 65.5 °F 52.3 °F 62% 30.08 in 10.0 mi SW 11.5 mph 17.3 mph N/A   Clear
11:14 AM 67.3 °F 52.0 °F 58% 30.09 in 10.0 mi SW 16.1 mph - N/A   Clear
11:33 AM 68.4 °F 51.4 °F 55% 30.09 in 10.0 mi SW 15.0 mph - N/A   Clear
11:53 AM 69.3 °F 50.9 °F 52% 30.09 in 10.0 mi WSW 16.1 mph 21.9 mph N/A   Scattered Clouds
12:33 PM 70.9 °F 50.9 °F 49% 30.08 in 10.0 mi SSW 12.7 mph 20.7 mph N/A   Clear
12:53 PM 72.1 °F 50.7 °F 47% 30.07 in 10.0 mi SSW 11.5 mph 19.6 mph N/A   Clear
1:14 PM 73.0 °F 50.4 °F 45% 30.06 in 10.0 mi SW 12.7 mph 18.4 mph N/A   Clear
1:33 PM 73.2 °F 50.2 °F 44% 30.06 in 10.0 mi SSW 12.7 mph 18.4 mph N/A   Clear
1:54 PM 73.9 °F 50.2 °F 43% 30.06 in 10.0 mi SSW 11.5 mph 17.3 mph N/A   Clear
2:13 PM 73.8 °F 50.2 °F 43% 30.05 in 10.0 mi SW 16.1 mph 20.7 mph N/A   Clear
2:33 PM 74.7 °F 50.7 °F 43% 30.05 in 10.0 mi SSW 12.7 mph - N/A   Scattered Clouds
2:54 PM 75.2 °F 50.7 °F 42% 30.04 in 10.0 mi SSW 11.5 mph 17.3 mph N/A   Clear
3:13 PM 75.2 °F 49.8 °F 41% 30.03 in 10.0 mi SSW 8.1 mph 20.7 mph N/A   Clear
3:34 PM 74.8 °F 48.7 °F 40% 30.02 in 10.0 mi SW 18.4 mph 24.2 mph N/A   Scattered Clouds
3:54 PM 75.6 °F 48.0 °F 38% 30.02 in 10.0 mi SSW 13.8 mph 21.9 mph N/A   Scattered Clouds
4:13 PM 75.7 °F 48.2 °F 38% 30.02 in 10.0 mi SW 17.3 mph 24.2 mph N/A   Scattered Clouds
4:34 PM 75.2 °F 47.5 °F 37% 30.03 in 10.0 mi SSW 16.1 mph 23.0 mph N/A   Scattered Clouds
4:54 PM 75.7 °F 46.8 °F 36% 30.03 in 10.0 mi SW 16.1 mph 19.6 mph N/A   Scattered Clouds
5:13 PM 75.2 °F 47.5 °F 37% 30.02 in 10.0 mi SW 10.4 mph 18.4 mph N/A   Scattered Clouds
5:34 PM 76.1 °F 47.8 °F 37% 30.02 in 10.0 mi SW 12.7 mph 19.6 mph N/A   Clear
5:53 PM 75.2 °F 48.2 °F 38% 30.01 in 10.0 mi SSW 10.4 mph 16.1 mph N/A   Clear
6:14 PM 74.7 °F 49.3 °F 41% 30.00 in 10.0 mi South 9.2 mph - N/A   Mostly Cloudy
6:34 PM 73.6 °F 49.6 °F 43% 30.00 in 10.0 mi South 9.2 mph - N/A   Scattered Clouds
6:53 PM 72.7 °F 50.2 °F 45% 29.99 in 10.0 mi South 6.9 mph - N/A   Scattered Clouds
7:13 PM 72.0 °F 50.7 °F 47% 30.00 in 10.0 mi South 5.8 mph - N/A   Mostly Cloudy
7:33 PM 71.2 °F 51.3 °F 49% 29.99 in 10.0 mi South 5.8 mph - N/A   Mostly Cloudy
7:54 PM 71.1 °F 51.4 °F 50% 29.99 in 10.0 mi South 8.1 mph - N/A   Mostly Cloudy
8:13 PM 70.9 °F 51.8 °F 51% 29.99 in 10.0 mi South 8.1 mph - N/A   Mostly Cloudy
8:34 PM 70.9 °F 52.5 °F 52% 29.99 in 10.0 mi South 10.4 mph - N/A   Overcast
8:54 PM 69.4 °F 53.8 °F 57% 29.99 in 10.0 mi SSW 6.9 mph - N/A   Overcast
9:13 PM 69.4 °F 54.5 °F 59% 30.01 in 10.0 mi WSW 11.5 mph 18.4 mph N/A   Overcast
9:34 PM 68.7 °F 56.3 °F 64% 30.03 in 10.0 mi WSW 16.1 mph 21.9 mph N/A Rain Light Rain
9:54 PM 61.5 °F 58.6 °F 90% 30.04 in 5.0 mi WSW 10.4 mph - N/A Rain Heavy Rain
10:13 PM 61.7 °F 58.6 °F 90% 30.04 in 10.0 mi SW 12.7 mph - N/A Rain Light Rain
10:34 PM 61.2 °F 58.3 °F 90% 30.04 in 10.0 mi WSW 8.1 mph - N/A   Overcast
10:54 PM 61.0 °F 58.3 °F 91% 30.04 in 10.0 mi West 5.8 mph - N/A   Mostly Cloudy
11:13 PM 60.4 °F 57.6 °F 90% 30.04 in 7.0 mi WSW 9.2 mph - N/A Rain Light Rain
11:34 PM 59.9 °F 57.2 °F 91% 30.05 in 10.0 mi WSW 8.1 mph - N/A   Overcast
11:54 PM 59.5 °F 56.8 °F 91% 30.04 in 10.0 mi WSW 11.5 mph 16.1 mph N/A   Overcast